TimeMST,TemperatureF,Dew PointF,Humidity,Sea Level PressureIn,VisibilityMPH,Wind Direction,Wind SpeedMPH,Gust SpeedMPH,PrecipitationIn,Events,Conditions,WindDirDegrees,DateUTC
12:51 AM,15.1,12.0,88,30.26,-9999.0,Calm,Calm,-,N/A,,Unknown,0,2012-12-10 07:51:00
1:51 AM,16.0,12.0,84,30.22,-9999.0,Calm,Calm,-,N/A,,Unknown,0,2012-12-10 08:51:00
2:51 AM,16.0,12.9,88,30.22,-9999.0,Calm,Calm,-,N/A,,Unknown,0,2012-12-10 09:51:00
3:51 AM,17.1,12.9,84,30.20,-9999.0,ESE,3.5,-,N/A,,Unknown,110,2012-12-10 10:51:00
5:51 AM,16.0,12.0,84,-9999,-9999.0,Calm,Calm,-,N/A,,Unknown,0,2012-12-10 12:51:00
6:51 AM,14.0,10.9,88,-9999,-9999.0,Calm,Calm,-,N/A,,Unknown,0,2012-12-10 13:51:00
7:51 AM,12.0,10.0,92,30.21,-9999.0,Calm,Calm,-,N/A,,Unknown,0,2012-12-10 14:51:00
8:51 AM,19.9,17.1,89,30.20,-9999.0,West,3.5,-,N/A,,Unknown,270,2012-12-10 15:51:00
9:51 AM,26.1,18.0,71,30.17,-9999.0,Variable,6.9,-,N/A,,Unknown,0,2012-12-10 16:51:00
10:51 AM,30.9,17.1,57,30.15,-9999.0,NNW,10.4,19.6,N/A,,Unknown,330,2012-12-10 17:51:00
11:51 AM,30.0,19.0,64,30.17,-9999.0,NNW,9.2,-,N/A,,Unknown,330,2012-12-10 18:51:00
12:51 PM,32.0,17.1,54,30.14,-9999.0,NNW,8.1,-,N/A,,Unknown,340,2012-12-10 19:51:00
1:51 PM,32.0,17.1,54,30.10,-9999.0,NNW,9.2,-,N/A,,Unknown,340,2012-12-10 20:51:00
2:51 PM,30.9,17.1,57,30.09,-9999.0,NNW,9.2,-,N/A,,Unknown,340,2012-12-10 21:51:00
3:51 PM,28.9,15.1,56,30.11,-9999.0,NNW,9.2,20.7,N/A,,Unknown,330,2012-12-10 22:51:00
4:51 PM,25.0,15.1,66,30.09,-9999.0,NNW,6.9,-,N/A,,Unknown,340,2012-12-10 23:51:00
5:51 PM,23.0,15.1,72,30.14,-9999.0,West,3.5,-,N/A,,Unknown,260,2012-12-11 00:51:00
6:51 PM,18.0,12.9,81,30.18,-9999.0,Calm,Calm,-,N/A,,Unknown,0,2012-12-11 01:51:00
7:51 PM,18.0,14.0,84,30.20,-9999.0,Calm,Calm,-,N/A,,Unknown,0,2012-12-11 02:51:00
8:51 PM,21.9,17.1,82,30.14,-9999.0,Calm,Calm,-,N/A,,Unknown,0,2012-12-11 03:51:00
9:51 PM,23.0,17.1,78,30.10,-9999.0,East,4.6,-,N/A,,Unknown,90,2012-12-11 04:51:00
10:51 PM,24.1,17.1,75,30.07,-9999.0,Calm,Calm,-,N/A,,Unknown,0,2012-12-11 05:51:00
11:51 PM,24.1,18.0,77,30.07,-9999.0,SE,3.5,-,N/A,,Unknown,140,2012-12-11 06:51:00